KV9E Weather Reports


time (UTC)temp
C
wind
direction
speed
KPH
gust
KPH
rain 1hr
cm
rain 24hr
cm
rain mn
cm
humidity
%
barometer
mb
20260906040139 23 161 0.0 0.0 0.00 0.00 0.00 96 1013.6
20260906035634 23 192 0.0 0.0 0.00 0.00 0.00 96 1013.8
20260906035130 23 192 0.0 0.0 0.00 0.00 0.00 96 1014.1
20260906034629 23 182 0.0 0.0 0.00 0.00 0.00 95 1014.3
20260906034124 23 182 0.0 0.0 0.00 0.00 0.00 95 1014.2
20260906033620 23 181 0.0 0.0 0.00 0.00 0.00 96 1014.1
20260906033114 23 181 0.0 0.0 0.00 0.00 0.00 95 1014.0
20260906032612 23 181 0.0 0.0 0.00 0.00 0.00 95 1014.1
20260906032111 23 160 0.0 3.2 0.00 0.00 0.00 95 1013.7
20260906031606 23 166 0.0 0.0 0.00 0.00 0.00 95 1013.4
20260906031102 23 149 0.0 3.2 0.00 0.00 0.00 94 1013.8
20260906030601 23 179 0.0 0.0 0.00 0.00 0.00 93 1013.5
20260906030055 23 192 0.0 0.0 0.00 0.00 0.00 93 1013.5
20260906025550 23 171 0.0 0.0 0.00 0.00 0.00 93 1013.6
20260906025049 23 169 0.0 0.0 0.00 0.00 0.00 93 1014.1
20260906024543 23 163 0.0 0.0 0.00 0.00 0.00 92 1013.4
20260906024038 23 171 0.0 0.0 0.00 0.00 0.00 92 1013.4
20260906023534 23 170 0.0 0.0 0.00 0.00 0.00 92 1013.5
20260906023029 23 173 0.0 0.0 0.00 0.00 0.00 92 1013.1
20260906022523 23 173 0.0 0.0 0.00 0.00 0.00 91 1013.1
20260906022013 23 173 0.0 0.0 0.00 0.00 0.00 91 1013.3
20260906021508 23 171 0.0 0.0 0.00 0.00 0.00 91 1012.9
20260906021002 23 171 0.0 0.0 0.00 0.00 0.00 91 1012.6
20260906020456 23 169 0.0 0.0 0.00 0.00 0.00 90 1012.7
20260906015956 24 150 1.6 3.2 0.00 0.00 0.00 90 1012.5
20260906015455 23 170 0.0 0.0 0.00 0.00 0.00 91 1012.8
20260906014955 23 161 0.0 0.0 0.00 0.00 0.00 92 1012.6
20260906014455 23 173 0.0 0.0 0.00 0.00 0.00 92 1012.8
20260906013945 23 168 0.0 0.0 0.00 0.00 0.00 92 1012.7
20260906013440 23 172 0.0 0.0 0.00 0.00 0.00 92 1012.6
20260906012936 24 168 0.0 0.0 0.00 0.00 0.00 90 1012.6
20260906012431 25 169 0.0 0.0 0.00 0.00 0.00 86 1012.5
20260906011930 25 167 0.0 0.0 0.00 0.00 0.00 85 1012.4
20260906011426 25 173 0.0 0.0 0.00 0.00 0.00 85 1012.5
20260906010921 25 179 0.0 0.0 0.00 0.00 0.00 84 1012.4
20260906010416 25 177 0.0 0.0 0.00 0.00 0.00 85 1012.6
20260906005912 25 177 0.0 0.0 0.00 0.00 0.00 86 1012.7
20260906005412 25 178 0.0 0.0 0.00 0.00 0.00 87 1012.8
20260906004904 25 175 0.0 0.0 0.00 0.00 0.00 88 1012.8
20260906004359 25 175 0.0 0.0 0.00 0.00 0.00 89 1012.9
20260906003855 25 179 0.0 0.0 0.00 0.00 0.00 89 1012.9
20260906003350 25 171 0.0 0.0 0.00 0.00 0.00 88 1013.0
20260906002845 25 167 0.0 0.0 0.00 0.00 0.00 85 1012.8
20260906002345 25 160 0.0 0.0 0.00 0.00 0.00 85 1012.9
20260906001841 25 181 0.0 0.0 0.00 0.00 0.00 85 1012.9
20260906001336 26 177 0.0 0.0 0.00 0.00 0.00 84 1013.0
20260906000831 26 177 0.0 0.0 0.00 0.00 0.00 84 1013.0
20260906000326 26 183 0.0 0.0 0.00 0.00 0.00 83 1012.7
20260905235826 26 174 0.0 0.0 0.00 0.00 0.00 83 1012.8
20260905235326 26 180 0.0 0.0 0.00 0.00 0.00 82 1012.8
20260905234821 26 181 0.0 0.0 0.00 0.00 0.00 81 1013.0
20260905234316 26 175 0.0 0.0 0.00 0.00 0.00 80 1012.7
20260905233811 27 178 0.0 0.0 0.00 0.00 0.00 79 1012.4
20260905233306 27 177 0.0 0.0 0.00 0.00 0.00 78 1012.5
20260905232805 27 175 0.0 0.0 0.00 0.00 0.00 77 1012.2
20260905232305 27 171 0.0 0.0 0.00 0.00 0.00 76 1012.4
20260905231757 27 172 0.0 0.0 0.00 0.00 0.00 75 1012.5
20260905231251 28 186 0.0 0.0 0.00 0.00 0.00 76 1012.6
20260905230742 28 169 0.0 0.0 0.00 0.00 0.00 72 1012.5
20260905230239 28 175 0.0 0.0 0.00 0.00 0.00 73 1012.6
20260905225733 28 172 0.0 0.0 0.00 0.00 0.00 72 1012.6
20260905225229 29 180 0.0 0.0 0.00 0.00 0.00 71 1012.7
20260905224727 30 177 0.0 0.0 0.00 0.00 0.00 68 1012.5
20260905224223 30 183 0.0 0.0 0.00 0.00 0.00 68 1012.5
20260905223719 30 186 0.0 0.0 0.00 0.00 0.00 66 1012.4
20260905223216 31 193 0.0 0.0 0.00 0.00 0.00 66 1012.7
20260905222712 31 197 0.0 0.0 0.00 0.00 0.00 65 1012.8
20260905222210 31 187 0.0 0.0 0.00 0.00 0.00 63 1012.4
20260905221706 31 189 0.0 0.0 0.00 0.00 0.00 65 1012.6
20260905221203 30 189 0.0 0.0 0.00 0.00 0.00 67 1012.6
20260905220658 31 173 3.2 3.2 0.00 0.00 0.00 68 1012.8
20260905220155 31 192 0.0 0.0 0.00 0.00 0.00 65 1012.8
20260905215649 30 197 0.0 0.0 0.00 0.00 0.00 65 1012.7
20260905215144 30 193 0.0 0.0 0.00 0.00 0.00 65 1012.8
20260905214640 30 210 0.0 0.0 0.00 0.00 0.00 65 1012.8
20260905214135 29 187 0.0 0.0 0.00 0.00 0.00 66 1012.8
20260905213631 29 173 0.0 0.0 0.00 0.00 0.00 68 1012.8
20260905213126 29 191 0.0 0.0 0.00 0.00 0.00 63 1012.7
20260905212621 27 191 0.0 0.0 0.00 0.00 0.00 67 1013.1
20260905212121 27 178 0.0 0.0 0.00 0.00 0.00 70 1013.0
20260905211616 27 173 0.0 0.0 0.00 0.00 0.00 70 1013.1
20260905211111 27 173 0.0 0.0 0.00 0.00 0.00 70 1013.0
20260905210607 27 161 1.6 3.2 0.00 0.00 0.00 71 1013.0
20260905205601 27 172 0.0 0.0 0.00 0.00 0.00 68 1013.1
20260905205100 28 166 0.0 0.0 0.00 0.00 0.00 72 1012.9
20260905204555 28 176 0.0 0.0 0.00 0.00 0.00 68 1012.9
20260905204050 28 174 0.0 0.0 0.00 0.00 0.00 69 1013.3
20260905203550 29 172 0.0 0.0 0.00 0.00 0.00 65 1013.3
20260905203045 31 188 0.0 0.0 0.00 0.00 0.00 55 1013.5
20260905202541 30 194 0.0 0.0 0.00 0.00 0.00 54 1013.4
20260905202036 30 193 0.0 0.0 0.00 0.00 0.00 56 1013.5
20260905201532 30 211 0.0 0.0 0.00 0.00 0.00 57 1013.7
20260905201031 28 187 0.0 0.0 0.00 0.00 0.00 64 1013.4
20260905200526 28 186 0.0 0.0 0.00 0.00 0.00 60 1013.4
20260905200020 26 186 0.0 0.0 0.00 0.00 0.00 66 1013.6
20260905195515 25 190 0.0 0.0 0.00 0.00 0.00 72 1013.5
20260905195010 24 193 0.0 0.0 0.00 0.00 0.00 79 1013.8
20260905194509 24 207 0.0 0.0 0.00 0.00 0.00 80 1013.7
20260905194003 24 216 0.0 3.2 0.00 0.00 0.00 79 1013.8
20260905193458 24 183 0.0 0.0 0.00 0.00 0.00 80 1013.7
20260905192954 25 203 3.2 4.8 0.00 0.00 0.00 79 1014.0
20260905192449 25 238 3.2 4.8 0.00 0.00 0.00 78 1014.2
20260905191945 25 177 0.0 0.0 0.00 0.00 0.00 77 1014.4
20260905191443 26 181 0.0 0.0 0.00 0.00 0.00 77 1014.2
20260905190937 27 174 0.0 0.0 0.00 0.00 0.00 78 1014.4
20260905190436 27 180 0.0 0.0 0.00 0.00 0.00 78 1014.5
20260905185934 28 236 1.6 3.2 0.00 0.00 0.00 75 1014.5
20260905185430 28 66 1.6 3.2 0.00 0.00 0.00 73 1014.3
20260905184928 28 174 0.0 0.0 0.00 0.00 0.00 72 1014.2
20260905184423 29 200 0.0 0.0 0.00 0.00 0.00 71 1014.4
20260905183922 30 187 0.0 0.0 0.00 0.00 0.00 69 1014.3
20260905183416 30 180 0.0 0.0 0.00 0.00 0.00 68 1014.1
20260905182912 31 177 0.0 0.0 0.00 0.00 0.00 63 1014.3
20260905182410 32 150 6.4 11.3 0.00 0.00 0.00 62 1014.1
20260905181906 31 170 3.2 4.8 0.00 0.00 0.00 63 1014.3
20260905181401 31 189 6.4 8.0 0.00 0.00 0.00 62 1014.3
20260905180859 31 237 1.6 3.2 0.00 0.00 0.00 62 1014.4
20260905180355 31 175 0.0 0.0 0.00 0.00 0.00 61 1014.6
20260905175850 33 177 3.2 4.8 0.00 0.00 0.00 60 1014.5
20260905175344 32 201 0.0 0.0 0.00 0.00 0.00 60 1014.6
20260905174839 31 169 3.2 4.8 0.00 0.00 0.00 62 1014.5
20260905174335 31 180 0.0 0.0 0.00 0.00 0.00 61 1014.5
20260905173831 31 210 1.6 3.2 0.00 0.00 0.00 61 1014.6
20260905173327 31 155 0.0 3.2 0.00 0.00 0.00 62 1014.6
20260905172826 31 232 1.6 3.2 0.00 0.00 0.00 63 1014.6
20260905172324 31 175 3.2 3.2 0.00 0.00 0.00 63 1014.8
20260905171821 31 172 3.2 4.8 0.00 0.00 0.00 62 1014.7
20260905171317 31 192 0.0 3.2 0.00 0.00 0.00 63 1014.9
20260905170814 30 148 3.2 4.8 0.00 0.00 0.00 64 1015.0
20260905170309 30 285 3.2 8.0 0.00 0.00 0.00 68 1014.9
20260905165807 30 202 0.0 0.0 0.00 0.00 0.00 70 1015.0
20260905165258 30 181 1.6 3.2 0.00 0.00 0.00 70 1015.2
20260905164758 30 273 0.0 3.2 0.00 0.00 0.00 69 1015.0
20260905164258 30 131 4.8 4.8 0.00 0.00 0.00 70 1015.0
20260905163748 30 181 0.0 0.0 0.00 0.00 0.00 69 1015.1
20260905163244 29 172 0.0 0.0 0.00 0.00 0.00 71 1015.4
20260905162740 29 211 3.2 4.8 0.00 0.00 0.00 70 1015.4
20260905162240 29 185 0.0 0.0 0.00 0.00 0.00 73 1015.6
20260905161734 28 168 0.0 0.0 0.00 0.00 0.00 73 1015.4
20260905161233 28 177 0.0 0.0 0.00 0.00 0.00 74 1015.4
20260905160732 28 188 0.0 0.0 0.00 0.00 0.00 74 1015.6
20260905160232 28 186 0.0 0.0 0.00 0.00 0.00 75 1015.6
20260905155727 28 146 1.6 3.2 0.00 0.00 0.00 75 1015.7
20260905155225 27 186 0.0 0.0 0.00 0.00 0.00 76 1015.7
20260905154719 27 194 1.6 3.2 0.00 0.00 0.00 76 1015.5
20260905154215 27 185 0.0 0.0 0.00 0.00 0.00 78 1015.7
20260905153711 27 190 0.0 0.0 0.00 0.00 0.00 77 1015.7
20260905153207 27 300 3.2 3.2 0.00 0.00 0.00 78 1015.7
20260905152701 27 180 0.0 0.0 0.00 0.00 0.00 80 1015.7
20260905152155 26 211 0.0 0.0 0.00 0.00 0.00 80 1015.5
20260905151650 26 228 3.2 3.2 0.00 0.00 0.00 79 1015.7
20260905151146 26 190 0.0 0.0 0.00 0.00 0.00 81 1015.5
20260905150641 26 211 0.0 0.0 0.00 0.00 0.00 79 1015.8
20260905150139 26 190 0.0 3.2 0.00 0.00 0.00 82 1015.4
20260905145637 26 159 1.6 3.2 0.00 0.00 0.00 82 1015.8
20260905145137 25 210 0.0 0.0 0.00 0.00 0.00 83 1015.9
20260905144627 25 208 4.8 4.8 0.00 0.00 0.00 82 1015.7
20260905144125 25 186 0.0 0.0 0.00 0.00 0.00 86 1015.8
20260905143620 25 192 0.0 0.0 0.00 0.00 0.00 85 1015.8
20260905143115 25 198 0.0 0.0 0.00 0.00 0.00 84 1015.8
20260905142614 26 179 0.0 0.0 0.00 0.00 0.00 83 1015.7
20260905142113 25 161 0.0 0.0 0.00 0.00 0.00 83 1015.6
20260905141613 25 161 0.0 0.0 0.00 0.00 0.00 84 1015.9
20260905141110 25 159 0.0 0.0 0.00 0.00 0.00 84 1015.9
20260905140604 25 162 0.0 0.0 0.00 0.00 0.00 85 1015.9
20260905140103 24 162 0.0 0.0 0.00 0.00 0.00 84 1015.7
20260905135559 23 162 0.0 0.0 0.00 0.00 0.00 86 1016.0
20260905135054 23 158 0.0 0.0 0.00 0.00 0.00 88 1015.9
20260905134549 23 164 0.0 0.0 0.00 0.00 0.00 88 1015.9
20260905134047 23 163 0.0 0.0 0.00 0.00 0.00 88 1016.1
20260905133543 23 163 0.0 0.0 0.00 0.00 0.00 87 1016.0
20260905133043 23 163 0.0 0.0 0.00 0.00 0.00 88 1016.0
20260905132543 23 163 0.0 0.0 0.00 0.00 0.00 89 1016.0
20260905132038 23 160 0.0 0.0 0.00 0.00 0.00 88 1015.9
20260905131533 23 165 0.0 0.0 0.00 0.00 0.00 87 1016.1
20260905131028 23 163 0.0 0.0 0.00 0.00 0.00 84 1016.2
20260905130527 23 162 0.0 0.0 0.00 0.00 0.00 85 1016.0
20260905130023 23 162 0.0 0.0 0.00 0.00 0.00 86 1016.0
20260905125522 23 162 0.0 0.0 0.00 0.00 0.00 85 1016.1
20260905125018 23 162 0.0 0.0 0.00 0.00 0.00 86 1016.1
20260905124514 23 162 0.0 0.0 0.00 0.00 0.00 86 1016.4
20260905124010 23 162 0.0 0.0 0.00 0.00 0.00 85 1015.9
20260905123505 23 161 0.0 0.0 0.00 0.00 0.00 85 1016.4
20260905123001 23 161 0.0 0.0 0.00 0.00 0.00 88 1016.4
20260905122455 23 161 0.0 0.0 0.00 0.00 0.00 88 1016.1
20260905121950 23 161 0.0 0.0 0.00 0.00 0.00 86 1016.0
20260905121446 23 161 0.0 0.0 0.00 0.00 0.00 87 1016.0
20260905120945 23 161 0.0 0.0 0.00 0.00 0.00 87 1015.8
20260905120439 23 161 0.0 0.0 0.00 0.00 0.00 86 1015.8
20260905115934 23 161 0.0 0.0 0.00 0.00 0.00 85 1015.9
20260905115433 23 161 0.0 0.0 0.00 0.00 0.00 84 1015.8
20260905114923 23 162 0.0 0.0 0.00 0.00 0.00 83 1015.5
20260905114422 23 163 0.0 0.0 0.00 0.00 0.00 83 1015.8
20260905113921 23 163 0.0 0.0 0.00 0.00 0.00 83 1015.5
20260905113417 23 164 0.0 0.0 0.00 0.00 0.00 82 1015.4
20260905112913 23 166 0.0 0.0 0.00 0.00 0.00 83 1015.4
20260905112408 23 167 0.0 0.0 0.00 0.00 0.00 82 1015.3
20260905111903 23 168 0.0 0.0 0.00 0.00 0.00 82 1015.2
20260905111402 23 168 0.0 0.0 0.00 0.00 0.00 82 1015.0
20260905110902 23 168 0.0 0.0 0.00 0.00 0.00 81 1015.2
20260905110356 23 167 0.0 0.0 0.00 0.00 0.00 82 1015.1
20260905105852 23 167 0.0 0.0 0.00 0.00 0.00 81 1015.1
20260905105351 23 167 0.0 0.0 0.00 0.00 0.00 82 1015.1
20260905104845 23 167 0.0 0.0 0.00 0.00 0.00 83 1015.2
20260905104342 23 166 0.0 0.0 0.00 0.00 0.00 84 1014.8
20260905103841 23 166 0.0 0.0 0.00 0.00 0.00 83 1014.9
20260905103337 23 166 0.0 0.0 0.00 0.00 0.00 82 1014.8
20260905102832 23 166 0.0 0.0 0.00 0.00 0.00 82 1014.7
20260905102329 23 165 0.0 0.0 0.00 0.00 0.00 82 1014.6
20260905101829 23 165 0.0 0.0 0.00 0.00 0.00 84 1014.8
20260905101327 23 164 0.0 0.0 0.00 0.00 0.00 83 1014.8
20260905100821 23 164 0.0 0.0 0.00 0.00 0.00 83 1014.6
20260905100317 23 164 0.0 0.0 0.00 0.00 0.00 82 1014.7
20260905095816 23 164 0.0 0.0 0.00 0.00 0.00 82 1014.7
20260905095311 23 164 0.0 0.0 0.00 0.00 0.00 82 1014.7
20260905094805 23 164 0.0 0.0 0.00 0.00 0.00 83 1014.8
20260905094302 23 164 0.0 0.0 0.00 0.00 0.00 84 1014.5
20260905093800 23 164 0.0 0.0 0.00 0.00 0.00 84 1014.6
20260905093256 23 163 0.0 0.0 0.00 0.00 0.00 84 1014.6
20260905092752 23 163 0.0 0.0 0.00 0.00 0.00 85 1014.5
20260905092246 23 163 0.0 0.0 0.00 0.00 0.00 84 1014.6
20260905091741 23 163 0.0 0.0 0.00 0.00 0.00 84 1014.5
20260905091236 23 163 0.0 0.0 0.00 0.00 0.00 83 1014.6
20260905090735 23 163 0.0 0.0 0.00 0.00 0.00 81 1014.5
20260905090231 23 163 0.0 0.0 0.00 0.00 0.00 81 1014.4
20260905085730 23 163 0.0 0.0 0.00 0.00 0.00 82 1014.6
20260905085225 23 163 0.0 0.0 0.00 0.00 0.00 82 1014.5
20260905084725 23 163 0.0 0.0 0.00 0.00 0.00 82 1014.5
20260905084224 23 163 0.0 0.0 0.00 0.00 0.00 81 1014.5
20260905083720 23 163 0.0 0.0 0.00 0.00 0.00 81 1014.4
20260905083215 23 163 0.0 0.0 0.00 0.00 0.00 82 1014.4
20260905082711 23 162 0.0 0.0 0.00 0.00 0.00 83 1014.7
20260905082206 23 162 0.0 0.0 0.00 0.00 0.00 83 1014.7
20260905081700 23 162 0.0 0.0 0.00 0.00 0.00 83 1014.7
20260905081156 23 162 0.0 0.0 0.00 0.00 0.00 83 1014.8
20260905080650 23 162 0.0 0.0 0.00 0.00 0.00 83 1014.7
20260905080150 23 162 0.0 0.0 0.00 0.00 0.00 84 1014.6
20260905075649 23 162 0.0 0.0 0.00 0.00 0.00 87 1014.5
20260905075148 23 162 0.0 0.0 0.00 0.00 0.00 88 1014.8
20260905074647 23 162 0.0 0.0 0.00 0.00 0.00 87 1014.8
20260905074143 23 162 0.0 0.0 0.00 0.00 0.00 89 1014.9
20260905073639 22 162 0.0 0.0 0.00 0.00 0.00 91 1014.9
20260905073134 23 161 0.0 0.0 0.00 0.00 0.00 91 1015.0
20260905072633 23 160 1.6 3.2 0.00 0.00 0.00 90 1015.0
20260905072129 23 163 0.0 0.0 0.00 0.00 0.00 89 1014.9
20260905071625 23 163 0.0 0.0 0.00 0.00 0.00 87 1015.1
20260905071121 23 163 0.0 0.0 0.00 0.00 0.00 83 1015.0
20260905070616 23 163 0.0 0.0 0.00 0.00 0.00 85 1014.9
20260905070112 23 162 0.0 0.0 0.00 0.00 0.00 87 1015.1
20260905065610 23 162 0.0 0.0 0.00 0.00 0.00 88 1015.0
20260905065104 23 162 0.0 0.0 0.00 0.00 0.00 85 1015.0
20260905064559 24 162 0.0 0.0 0.00 0.00 0.00 84 1015.1
20260905064055 24 162 0.0 0.0 0.00 0.00 0.00 84 1015.1
20260905063553 24 162 0.0 0.0 0.00 0.00 0.00 84 1015.0
20260905063050 24 162 0.0 0.0 0.00 0.00 0.00 84 1015.2
20260905062544 24 162 0.0 0.0 0.00 0.00 0.00 84 1015.2
20260905062039 24 162 0.0 0.0 0.00 0.00 0.00 84 1015.2
20260905061534 24 162 0.0 0.0 0.00 0.00 0.00 83 1015.3
20260905061033 24 162 0.0 0.0 0.00 0.00 0.00 84 1015.3
20260905060530 24 162 0.0 0.0 0.00 0.00 0.00 84 1015.5
20260905060025 24 162 0.0 0.0 0.00 0.00 0.00 84 1015.4
20260905055524 24 162 0.0 0.0 0.00 0.00 0.00 85 1015.4
20260905055019 24 161 0.0 0.0 0.00 0.00 0.00 85 1015.3
20260905054514 24 161 0.0 0.0 0.00 0.00 0.00 87 1015.4
20260905054010 24 161 0.0 0.0 0.00 0.00 0.00 87 1015.3
20260905053503 24 161 0.0 0.0 0.00 0.00 0.00 87 1015.6
20260905052959 23 161 0.0 0.0 0.00 0.00 0.00 87 1015.4
20260905052453 23 161 0.0 0.0 0.00 0.00 0.00 89 1015.2
20260905051953 23 160 0.0 0.0 0.00 0.00 0.00 88 1015.3
20260905051448 23 160 0.0 0.0 0.00 0.00 0.00 88 1015.5
20260905050946 23 160 0.0 0.0 0.00 0.00 0.00 88 1015.6
20260905050441 23 160 0.0 0.0 0.00 0.00 0.00 89 1015.4
20260905045936 23 160 0.0 0.0 0.00 0.00 0.00 89 1015.4
20260905045425 23 160 0.0 0.0 0.00 0.00 0.00 89 1015.5
20260905044921 23 160 0.0 0.0 0.00 0.00 0.00 89 1015.1
20260905044410 23 160 0.0 0.0 0.00 0.00 0.00 89 1015.4
20260905043909 24 159 0.0 0.0 0.00 0.00 0.00 88 1015.4
20260905043403 24 159 0.0 0.0 0.00 0.00 0.00 86 1015.6
20260905042858 24 158 0.0 0.0 0.00 0.00 0.00 88 1015.6
20260905042353 25 160 0.0 0.0 0.00 0.00 0.00 86 1015.5
20260905041847 24 160 0.0 0.0 0.00 0.00 0.00 85 1015.2
20260905041344 24 160 0.0 0.0 0.00 0.00 0.00 88 1015.3
20260905040838 23 160 0.0 0.0 0.00 0.00 0.00 89 1015.4
20260905040336 23 160 0.0 0.0 0.00 0.00 0.00 91 1015.4